Conway, MI

11:26 AM EDT on August 30, 2016 (GMT -0400)
Harbor Springs

Weather History for KMGN - January, 2013

Change the Weather History Date:

Thursday, January 3, 2013

  Actual Average (KPLN) Record (KPLN)
Temperature  
Mean Temperature 26 °F -  
Max Temperature 30 °F 28 °F 50 °F (1998)
Min Temperature 23 °F 13 °F -23 °F (1981)
Degree Days  
Heating Degree Days 38    
Moisture  
Dew Point 22 °F    
Average Humidity 80    
Maximum Humidity 89    
Minimum Humidity 69    
Precipitation  
Precipitation 0.00 in - - ()
Sea Level Pressure  
Sea Level Pressure 29.96 in    
Wind  
Wind Speed 7 mph (WSW)    
Max Wind Speed 24 mph    
Max Gust Speed 37 mph    
Visibility 8 miles    
Events Snow    
Averages and records for this station are not official NWS values.
T = Trace of Precipitation, MM = Missing Value Source: NWS Daily Summary

Daily Weather History Graph

Daily Weather History Graph

Search for Another Location

Airport or City:

Trip Planner

Search our weather history database for the weather conditions in past years. The results will help you decide how hot, cold, wet, or windy it might be!

Date:

Astronomy

Jan. 03, 2013 Rise Set
Actual Time 8:19 AM EST 5:09 PM EST
Civil Twilight 7:45 AM EST 5:43 PM EST
Nautical Twilight 7:08 AM EST 6:20 PM EST
Astronomical Twilight 6:32 AM EST 6:56 PM EST
Moon No Moon Rise 11:11 AM EST (1/3)
Length of Visible Light 9h 57m
Length of Day
8h 49m
Waning Gibbous, 65% of the Moon is Illuminated
Jan 3
Waning Gibbous
Jan 4
Last Quarter
Jan 11
New
Jan 18
First Quarter
Jan 26
Full

Hourly Weather History & Observations

Time (EST) Temp. Windchill Dew Point Humidity Pressure Visibility Wind Dir Wind Speed Gust Speed Precip Events Conditions
12:14 AM 23.4 °F 18.9 °F 19.0 °F 84% 30.03 in 10.0 mi SSE 3.5 mph - N/A   Overcast
12:35 AM 23.4 °F 17.4 °F 19.4 °F 85% 30.02 in 7.0 mi SSW 4.6 mph - N/A Snow Light Snow
12:55 AM 23.5 °F 19.1 °F 19.4 °F 84% 30.02 in 5.0 mi South 3.5 mph - N/A Snow Light Snow
1:14 AM 23.5 °F 17.6 °F 19.6 °F 85% 30.01 in 5.0 mi SE 4.6 mph - N/A Snow Light Snow
1:35 AM 23.5 °F - 19.9 °F 86% 30.01 in 5.0 mi Calm Calm - N/A Snow Light Snow
1:54 AM 23.9 °F - 20.1 °F 85% 30.00 in 5.0 mi Calm Calm - N/A Snow Light Snow
2:14 AM 23.4 °F 18.9 °F 19.9 °F 87% 29.99 in 5.0 mi NE 3.5 mph - N/A Snow Light Snow
2:35 AM 24.6 °F - 20.8 °F 86% 29.99 in 10.0 mi Calm Calm - N/A   Overcast
2:54 AM 24.6 °F - 21.0 °F 86% 29.99 in 7.0 mi Calm Calm - N/A Snow Light Snow
3:14 AM 25.0 °F 20.7 °F 21.4 °F 86% 29.98 in 10.0 mi SSW 3.5 mph - N/A   Overcast
3:35 AM 25.0 °F 20.7 °F 21.7 °F 87% 29.97 in 10.0 mi SSW 3.5 mph - N/A   Overcast
3:54 AM 25.5 °F 19.9 °F 22.1 °F 87% 29.96 in 10.0 mi SSW 4.6 mph - N/A   Overcast
4:14 AM 25.5 °F 19.9 °F 22.1 °F 87% 29.96 in 7.0 mi SSW 4.6 mph - N/A Snow Light Snow
4:35 AM 25.5 °F - 22.1 °F 87% 29.94 in 7.0 mi Calm Calm - N/A   Overcast
4:54 AM 25.5 °F 21.3 °F 22.1 °F 87% 29.94 in 7.0 mi SSW 3.5 mph - N/A   Overcast
5:14 AM 25.5 °F 16.9 °F 22.1 °F 87% 29.93 in 10.0 mi SSW 8.1 mph - N/A   Overcast
5:35 AM 25.5 °F - 22.1 °F 87% 29.93 in 10.0 mi Calm Calm - N/A   Overcast
5:54 AM 25.7 °F 21.5 °F 22.3 °F 87% 29.93 in 7.0 mi South 3.5 mph - N/A Snow Light Snow
6:14 AM 26.1 °F - 22.8 °F 88% 29.93 in 7.0 mi Calm Calm - N/A Snow Light Snow
6:35 AM 28.0 °F 21.7 °F 24.6 °F 87% 29.93 in 10.0 mi SSW 5.8 mph - N/A   Overcast
6:54 AM 28.0 °F 20.8 °F 24.8 °F 88% 29.92 in 7.0 mi South 6.9 mph - N/A Snow Light Snow
7:14 AM 28.0 °F 18.6 °F 24.8 °F 88% 29.92 in 5.0 mi South 10.4 mph - N/A Snow Light Snow
7:35 AM 28.0 °F 18.6 °F 24.8 °F 88% 29.92 in 5.0 mi SSW 10.4 mph 19.6 mph N/A   Overcast
7:54 AM 28.0 °F 17.5 °F 25.2 °F 89% 29.92 in 7.0 mi SSW 12.7 mph 18.4 mph N/A Snow Light Snow
8:35 AM 28.0 °F 20.8 °F 23.9 °F 84% 29.92 in 10.0 mi West 6.9 mph - N/A   Overcast
8:54 AM 28.0 °F 19.3 °F 23.4 °F 83% 29.93 in 10.0 mi West 9.2 mph 16.1 mph N/A   Overcast
9:15 AM 28.0 °F 17.5 °F 22.8 °F 81% 29.93 in 10.0 mi West 12.7 mph 17.3 mph N/A   Overcast
9:35 AM 28.0 °F 18.1 °F 22.6 °F 80% 29.94 in 10.0 mi West 11.5 mph 18.4 mph N/A   Overcast
9:54 AM 28.0 °F 19.3 °F 22.5 °F 80% 29.94 in 10.0 mi West 9.2 mph 18.4 mph N/A   Overcast
10:15 AM 28.0 °F 18.6 °F 22.3 °F 79% 29.95 in 10.0 mi West 10.4 mph 17.3 mph N/A   Overcast
10:35 AM 28.0 °F 18.6 °F 22.5 °F 80% 29.95 in 5.0 mi West 10.4 mph 21.9 mph N/A Snow Light Snow
10:54 AM 28.0 °F 20.8 °F 22.6 °F 80% 29.96 in 3.0 mi West 6.9 mph - N/A Snow Light Snow
11:15 AM 28.0 °F 20.0 °F 22.6 °F 80% 29.96 in 4.0 mi West 8.1 mph - N/A Snow Light Snow
11:35 AM 28.0 °F 21.7 °F 22.1 °F 78% 29.95 in 10.0 mi West 5.8 mph - N/A   Overcast
11:54 AM 28.0 °F 20.8 °F 22.1 °F 78% 29.95 in 10.0 mi West 6.9 mph - N/A   Overcast
12:15 PM 28.0 °F 20.8 °F 22.6 °F 80% 29.95 in 10.0 mi West 6.9 mph - N/A Snow Light Snow
12:35 PM 28.0 °F 20.0 °F 23.0 °F 81% 29.94 in 10.0 mi West 8.1 mph - N/A Snow Light Snow
12:54 PM 28.2 °F 17.7 °F 23.5 °F 83% 29.94 in 7.0 mi West 12.7 mph 17.3 mph N/A Snow Light Snow
1:15 PM 28.2 °F 17.7 °F 23.9 °F 84% 29.94 in 5.0 mi West 12.7 mph 19.6 mph N/A   Overcast
1:34 PM 28.0 °F 17.0 °F 23.7 °F 84% 29.94 in 7.0 mi WNW 13.8 mph 21.9 mph N/A   Overcast
1:54 PM 28.0 °F 20.0 °F 23.0 °F 81% 29.94 in 10.0 mi WNW 8.1 mph 20.7 mph N/A   Overcast
2:15 PM 28.0 °F 18.1 °F 23.0 °F 81% 29.94 in 7.0 mi WNW 11.5 mph 21.9 mph N/A   Overcast
2:34 PM 28.0 °F 18.6 °F 22.1 °F 78% 29.95 in 10.0 mi WNW 10.4 mph - N/A   Overcast
2:54 PM 28.0 °F 17.5 °F 22.1 °F 78% 29.95 in 10.0 mi WNW 12.7 mph 19.6 mph N/A   Overcast
3:15 PM 28.0 °F 19.3 °F 20.8 °F 74% 29.96 in 10.0 mi WNW 9.2 mph 18.4 mph N/A   Overcast
3:34 PM 28.0 °F 18.1 °F 20.3 °F 73% 29.97 in 10.0 mi WNW 11.5 mph 16.1 mph N/A   Overcast
3:54 PM 28.0 °F 17.5 °F 20.5 °F 73% 29.97 in 10.0 mi West 12.7 mph 19.6 mph N/A   Overcast
4:15 PM 28.0 °F 17.5 °F 20.3 °F 73% 29.98 in 10.0 mi West 12.7 mph 17.3 mph N/A   Overcast
4:34 PM 28.0 °F 20.0 °F 20.1 °F 72% 29.99 in 10.0 mi WNW 8.1 mph - N/A   Overcast
4:54 PM 28.0 °F 18.6 °F 19.6 °F 71% 29.99 in 10.0 mi West 10.4 mph 16.1 mph N/A   Overcast
5:15 PM 28.0 °F 18.6 °F 19.4 °F 70% 30.00 in 10.0 mi West 10.4 mph - N/A   Overcast
5:34 PM 28.0 °F 20.8 °F 19.4 °F 70% 30.00 in 10.0 mi West 6.9 mph 17.3 mph N/A   Overcast
5:54 PM 28.0 °F 20.8 °F 19.2 °F 70% 30.00 in 10.0 mi WNW 6.9 mph - N/A   Overcast
6:14 PM 28.0 °F 20.8 °F 19.4 °F 70% 30.00 in 10.0 mi WNW 6.9 mph - N/A   Overcast
6:34 PM 28.0 °F 22.8 °F 20.1 °F 72% 30.00 in 10.0 mi WNW 4.6 mph - N/A   Overcast
6:55 PM 28.0 °F 24.2 °F 20.3 °F 73% 30.00 in 10.0 mi West 3.5 mph - N/A   Overcast
7:14 PM 28.0 °F 19.3 °F 19.4 °F 70% 30.00 in 10.0 mi West 9.2 mph - N/A   Overcast
7:34 PM 28.8 °F 20.2 °F 19.8 °F 69% 29.99 in 10.0 mi West 9.2 mph 16.1 mph N/A   Overcast
7:55 PM 29.7 °F 20.1 °F 21.0 °F 70% 29.99 in 10.0 mi WSW 11.5 mph 21.9 mph N/A   Overcast
8:14 PM 29.8 °F 19.8 °F 21.0 °F 70% 29.98 in 10.0 mi West 12.7 mph 18.4 mph N/A   Overcast
8:34 PM 30.6 °F 21.8 °F 22.8 °F 73% 29.98 in 10.0 mi WSW 10.4 mph 20.7 mph N/A   Overcast
8:55 PM 30.6 °F 20.2 °F 22.3 °F 71% 29.98 in 10.0 mi WSW 13.8 mph 20.7 mph N/A   Overcast
9:14 PM 30.6 °F 19.4 °F 22.1 °F 71% 29.96 in 10.0 mi WSW 16.1 mph 25.3 mph N/A   Overcast
9:34 PM 30.6 °F 20.2 °F 23.7 °F 76% 29.95 in 10.0 mi WSW 13.8 mph 31.1 mph N/A   Overcast
9:55 PM 30.6 °F 18.2 °F 23.4 °F 75% 29.94 in 10.0 mi SW 19.6 mph 28.8 mph N/A   Overcast
10:14 PM 29.7 °F 17.4 °F 23.0 °F 76% 29.93 in 7.0 mi WSW 18.4 mph 31.1 mph N/A   Overcast
10:35 PM 29.5 °F 17.2 °F 23.0 °F 77% 29.94 in 10.0 mi WSW 18.4 mph 27.6 mph N/A   Overcast
10:55 PM 29.3 °F 15.9 °F 22.3 °F 75% 29.93 in 7.0 mi WSW 21.9 mph 34.5 mph N/A   Overcast
11:14 PM 28.6 °F 15.0 °F 21.9 °F 76% 29.93 in 7.0 mi SW 21.9 mph 36.8 mph N/A   Overcast
11:35 PM 28.2 °F 13.9 °F 21.9 °F 77% 29.92 in 7.0 mi SW 24.2 mph 34.5 mph N/A   Overcast
11:55 PM 28.4 °F 14.7 °F 22.5 °F 78% 29.91 in 7.0 mi SW 21.9 mph 33.4 mph N/A   Overcast